Regional Weather Roundup
Issued by NWS

Home | Current Version | Previous Version | Text Only | Print | Product List | Glossary Off
Versions: 1 2 3 4 5 6 7 8 9 10 11 12 13 14 15 16 17 18 19 20 21 22 23 24 25 26 27

000
ASUS45 KCYS 302110
RWRWY

WYOMING REGIONAL WEATHER ROUNDUP
NATIONAL WEATHER SERVICE CHEYENNE WY
300 PM MDT FRI SEP 30 2016

NOTE:  "FAIR" INDICATES FEW OR NO CLOUDS BELOW 12,000 FEET
WITH NO SIGNIFICANT WEATHER AND/OR OBSTRUCTIONS TO VISIBILITY.

WYZ001-302200-
YELLOWSTONE NATIONAL PARK

CITY           SKY/WX    TMP DP  RH WIND       PRES   REMARKS
LK YELLOWSTONE   N/A     54  46  74 CALM      30.32F
W YELLOWSTONE  NOT AVBL

$$
WYZ002>013-054>058-071-098>099-302200-
NORTHERN WYOMING

CITY           SKY/WX    TMP DP  RH WIND       PRES   REMARKS
JACKSON        MOSUNNY   61  50  67 W5        30.25F
CODY           PTSUNNY   74  45  35 NE7       30.10F
GREYBULL       FAIR      76  44  32 CALM      30.05F
WORLAND        FAIR      77  42  28 N6        30.07F
SHERIDAN       FAIR      79  49  34 S5        30.04S
BUFFALO        FAIR      76  42  29 CALM      30.10F
GILLETTE       FAIR      75  47  36 CALM      30.05F
HULETT         FAIR      77  46  33 W10       30.06F
NEWCASTLE      FAIR      73  43  33 SE10G18   30.08F

$$
WYZ014>020-022>026-101>103-302200-
CENTRAL WYOMING

CITY           SKY/WX    TMP DP  RH WIND       PRES   REMARKS
BIG PINEY      PTSUNNY   65  40  39 NW5       30.26F
PINEDALE       FAIR      68  37  32 NW5       30.27F
DUBOIS         LGT RAIN  63  37  39 NW13      30.24F
LANDER         CLOUDY    71  40  32 NW5       30.14F
RIVERTON       FAIR      76  42  29 N8        30.14F
CASPER         PTSUNNY   77  41  27 W13G21    30.12F
DOUGLAS        FAIR      79  41  25 W12G22    30.11F

$$
WYZ021-027>030-104>119-302200-
SOUTHERN WYOMING

CITY           SKY/WX    TMP DP  RH WIND       PRES   REMARKS
EVANSTON       CLOUDY    61  41  47 SW9       30.29F
FORT BRIDGER   MOCLDY    68  38  33 NW8       30.30F
ROCK SPRINGS   FAIR      69  38  32 W12       30.25F
DIXON          FAIR      67  45  44 S8        30.28F
RAWLINS        PTSUNNY   67  40  37 W13       30.25F
SARATOGA       MOCLDY    70  37  30 SW13G23   30.27F
LARAMIE        LGT RAIN  62  43  49 N8        30.27F
CHEYENNE       FAIR      69  45  41 VRB6      30.22F
TORRINGTON     CLOUDY    70  47  43 E5        30.11F
PINE BLUFFS    MOCLDY    72  43  35 W5        30.18F

$$




USA.gov is the U.S. government's official web portal to all federal, state and local government web resources and services.